sat.trackr.live / text

‹ back to catalog

STARLINK-31584

NORAD 59862 · 2024-098E

PAYLOAD ACTIVE UNKNOWN

§ Identity

Operator
Country
US
Launch date
2024-05-24
Launch site
AFETR
Launch vehicle
Mass (kg)
RCS (m²)

Purposes: comms

External: N2YO · Heavens-Above · Gunter

§ Orbital elements

Epoch: 2026-09-21T08:43:44.933664Z

Period
94.27 min
Inclination
43.0039°
Eccentricity
0.0001305
Mean motion
15.27580354 rev/d
Perigee alt
482.2 km
Apogee alt
483.9 km
Semi-major
6,861.2 km
B*
4.7540e-5
RAAN
252.7937°
Arg perigee
272.4587°
Mean anomaly
87.6115°
Rev number
13,177

§ Raw data

STARLINK-315841 59862U 24098E   26264.36371451  .00001046  00000+0  47540-4 0  99972 59862  43.0039 252.7937 0001305 272.4587  87.6115 15.27580354131777

JSON: /api/v1/satellites/59862 · /tle

For live sub-satellite position, see the globe view (requires WebGL).

§ Visibility from observer

Set your observer location to see the next 7 days of passes ≥ 10°. The values pass through the URL so the page stays shareable.

No JS? Fill the form by hand. The geolocation button needs JavaScript.